User: anonymous   Login
Location: Columbia
(38.9520°N, 92.3340°W)
Time: 02:27:29
(UTC-05:00)
Language:

Cosmos 2219 Rocket - Orbit

View from above orbital plane
View from above orbital plane
View from above satellite
View from above satellite

Ground track
Ground track

The orbit data is extracted from the following two-line orbital elements,

1 22220U 92076B   17269.18012903  .00000150  00000-0  99469-4 0  9998
2 22220  71.0000 206.6620 0010966 124.9346 331.2713 14.16418872285075
Epoch (UTC): 26 September 2017 04:19:23
Eccentricity: 0.0010966
inclination: 71.0000°
perigee height: 829 km
apogee height: 845 km
right ascension of ascending node: 206.6620°
argument of perigee: 124.9346°
revolutions per day: 14.16418872
mean anomaly at epoch: 331.2713°
orbit number at epoch: 28507

The dashed part of the orbit path shows where the satellite is in the earth's shadow,  

DLR